Regional Weather Roundup
Issued by NWS

Home | Current Version | Previous Version | Graphics & Text | Print | Product List | Glossary Off
Versions: 1 2 3 4 5 6 7 8 9 10 11 12 13 14 15 16 17 18 19 20 21 22 23 24 25 26 27 28 29 30 31 32 33 34 35 36 37 38 39 40 41 42 43 44 45 46 47 48 49 50

000
ASUS43 KMKX 211711
RWRWI

WISCONSIN REGIONAL WEATHER ROUNDUP
NATIONAL WEATHER SERVICE MILWAUKEE/SULLIVAN WI
1100 AM CST SUN JAN 21 2018

NOTE: "FAIR" INDICATES FEW OR NO CLOUDS BELOW 12,000 FEET WITH NO
SIGNIFICANT WEATHER AND/OR OBSTRUCTIONS TO VISIBILITY.

WIZ001-002-006>008-014>016-023>028-211800-
NORTHWEST WISCONSIN

CITY           SKY/WX    TMP DP  RH WIND       PRES   REMARKS
SUPERIOR ARPT  FAIR      32  27  81 CALM      30.02R
ASHLAND        FAIR      29  26  89 N5        30.02R FOG     WCI  24
HAYWARD        FAIR      34  28  79 CALM      29.99R
SIREN          CLOUDY    34  28  79 CALM      30.00S
CUMBERLAND     CLOUDY    34  28  80 CALM      29.97F
RICE LAKE      FAIR      34  30  85 N5        30.00S WCI  30
CHETEK         CLOUDY    36  30  80 CALM      29.99S
LADYSMITH      CLOUDY    35  30  83 CALM      29.99S
EAU CLAIRE     CLOUDY    34  31  88 E6        29.97F FOG     WCI  29
MENOMONIE      CLOUDY    36  30  80 N5        29.98F WCI  32
NEW RICHMOND   CLOUDY    35  28  75 NE3       29.99S
OSCEOLA        CLOUDY    34  34 100 CALM      30.02R
$$

WIZ003>005-009-010-017-018-211800-
NORTH CENTRAL WISCONSIN

CITY           SKY/WX    TMP DP  RH WIND       PRES   REMARKS
MANITOWISH WTR FAIR      30  30 100 CALM      29.96F
ARBOR VITAE    CLOUDY    34  33  94 N3        29.95F
WOODRUFF       CLOUDY    34  33  94 N3        29.95F
RHINELANDER    CLOUDY    37  31  78 E3        29.96F
EAGLE RIVER    FAIR      31  31 100 CALM      29.96F
LAND O LAKES   CLOUDY    32  32 100 CALM      29.98F
PHILLIPS       CLOUDY    33  31  90 CALM      29.96S
TOMAHAWK       CLOUDY    35  30  81 CALM      29.97S
MEDFORD        CLOUDY    36  30  78 NE3       29.96S
MERRILL        CLOUDY    35  31  86 CALM      29.98S
$$

WIZ029-030-035-036-043>047-211800-
CENTRAL WISCONSIN

CITY           SKY/WX    TMP DP  RH WIND       PRES   REMARKS
WAUSAU         CLOUDY    35  31  85 CALM      29.95S
MOSINEE        CLOUDY    37  32  81 N3        29.97S
MARSHFIELD     CLOUDY    39  31  72 NE6       29.95S WCI  35
STEVENS POINT  FAIR      37  30  77 CALM      29.97F
WAUPACA        FAIR      38  32  79 CALM      29.98F
WAUTOMA        FAIR      37  32  82 CALM      29.98S HAZE
WISC RAPIDS    FAIR      38  30  73 CALM      29.98S
CAMP DOUGLAS   PTSUNNY   36  36 100 CALM      29.95F
$$

WIZ011>013-019>022-031-037>040-048>050-211800-
NORTHEAST WISCONSIN

CITY           SKY/WX    TMP DP  RH WIND       PRES   REMARKS
ANTIGO         CLOUDY    34  31  88 N6        29.97R WCI  29
SHAWANO        FAIR      39  32  75 CALM      29.98S
OCONTO         CLOUDY    40  32  74 CALM      29.99S
STURGEON BAY   CLOUDY    40  31  70 S8        29.99F WCI  34
GREEN BAY      FAIR      37  32  82 SW5       29.99S HAZE    WCI  33
MANITOWOC      FAIR      38  34  85 S7        30.00R FOG     WCI  33
APPLETON       FOG       32  32 100 CALM      29.97R VSB 1/2
CLINTONVILLE   FAIR      36  30  80 CALM      29.98S
OSHKOSH        FOG       32  32 100 CALM      29.98R VSB<1/4
$$

WIZ032>034-041-042-053>061-211800-
SOUTHWEST WISCONSIN

CITY           SKY/WX    TMP DP  RH WIND       PRES   REMARKS
LA CROSSE      FOG       27  25  92 NW3       29.98S VSB<1/4
SPARTA         FAIR      32  32 100 CALM      29.97F
VIROQUA        FAIR      38  37  94 CALM      29.94S
BOSCOBEL       FOG       32  30  92 NE5       29.96F VSB 1/4 WCI  27
PRAIRIE DU CHI CLOUDY    30  29  96 CALM      29.95F FOG
PLATTEVILLE    FAIR      37  37 100 E9        29.93F WCI  30
$$

WIZ056-057-062-063-064-067-068-211800-
SOUTH CENTRAL WISCONSIN

CITY           SKY/WX    TMP DP  RH WIND       PRES   REMARKS
REEDSBURG      FOG       31  31 100 CALM      29.95F VSB 1/2
BARABOO/DELLS  FAIR      35  34  98 CALM      29.95F
LONE ROCK      FOG       31  31 100 CALM      29.96F VSB<1/4
MINERAL POINT  PTSUNNY   37  37 100 E6        29.93F FOG     WCI  33
MADISON        CLOUDY    36  34  92 CALM      29.97S FOG
MIDDLETON      CLOUDY    37  36  96 CALM      29.96F
WATERTOWN      CLOUDY    36  36 100 CALM      29.96F FOG
MONROE         CLOUDY    36  36 100 E5        29.94F FOG     WCI  32
JANESVILLE     CLOUDY    37  37 100 CALM      29.95F FOG
$$

WIZ051-052-058>065-066-070>072-211800-
SOUTHEAST WISCONSIN

CITY           SKY/WX    TMP DP  RH WIND       PRES   REMARKS
MILWAUKEE      CLOUDY    40  37  89 CALM      29.98S FOG
WAUKESHA       CLOUDY    36  36 100 CALM      29.98S FOG
MILWAUKEE/TIMM CLOUDY    37  34  87 E3        29.99S FOG
RACINE         CLOUDY    37  35  92 CALM      30.00S FOG
BURLINGTON     PTSUNNY   37  34  89 CALM      29.97F FOG
KENOSHA        CLOUDY    40  36  86 CALM      29.98S FOG
FOND DU LAC    FOG       36  34  92 CALM      29.97F VSB 1/2
SHEBOYGAN      FOG       34  34 100 CALM      29.98S VSB<1/4
WEST BEND      FOG       34  34 100 CALM      29.97F VSB 1/4
JUNEAU         CLOUDY    36  35  99 CALM      29.97F FOG
$$

LSZ147-162-211800-
LAKE SUPERIOR

STATION/POSITION TIME  TEMP    WIND        PRES    WAVE
                       AIR SEA DIR/SP/G            HT/PER
                 (UTC) (F)     (DEG/KT/KT) (MB)    (FT/S)
DEVILS ISLAND    1700   29      60/  3/  4 1017.3F
SAXON HARBOR     1640   30     360/  3/  4 1016.3R
$$

LMZ867-665-643>646-211800-
LAKE MICHIGAN

STATION/POSITION TIME  TEMP    WIND        PRES    WAVE
                       AIR SEA DIR/SP/G            HT/PER
                 (UTC) (F)     (DEG/KT/KT) (MB)    (FT/S)
NORTHPORT PIER   1640   38        CALM     1015.6S
KEWAUNEE LAKESHO 1648   36     150/  2/  2 1014.9F
SHEBOYGAN LAKESH 1700   33     230/  4/  4 1016.1S
PORT WASHINGTON  1640   36     200/  1/  2 1016.9R
MILWAUKEE LAKESH 1650   35      40/  2/  2   N/A
KENOSHA   LAKESH 1700   34        CALM     1015.6
$$

TC  - TEMPERATURE IN CELSIUS
VSB - VISIBILITY IN STATUTE MILES
WCI - WIND CHILL INDEX
HX  - HEAT INDEX




USA.gov is the U.S. government's official web portal to all federal, state and local government web resources and services.